Lexington Weather

Lexington, Massachusetts, USA

45°F
4/22/2024 9:35am 
  • Lexington Conditions: Clear
  • Temperature: 44.8°F / 7.1°CWarmer 2.2°F than last hour.
  • Dew Point: 25.3°FDecreased 1.8°Fsince last hour.
  • Relative Humidity: 46%Decreased 8.0% since last hour.
  • Wind: Calm, 10-min avg: Calm, gust: 1 mph
  • Barometer: 29.97 inRising 0.02  inHg/hr Rising Slowly
  • Visibility: 10 miles
  • Rain Today: 0.00 in
  •   

Regional Weather Roundup
for Boston, MA

        
000
ASUS41 KBOX 182110
RWRBOX

REGIONAL WEATHER ROUNDUP
NATIONAL WEATHER SERVICE BOSTON/NORTON MA
500 PM EDT THU APR 18 2024

NOTE:  "FAIR" INDICATES FEW OR NO CLOUDS BELOW 12,000 FEET WITH NO 
SIGNIFICANT WEATHER AND/OR OBSTRUCTIONS TO VISIBILITY.

MAZALL-182200-
EASTERN MASSACHUSETTS
  
CITY           SKY/WX    TMP DP  RH WIND       PRES   REMARKS
BOSTON         LGT RAIN  45  41  86 NE8       30.19R                  
BEVERLY        LGT RAIN  44  41  89 N7        30.19R                  
LAWRENCE       LGT RAIN  45  43  93 E6        30.21R                  
BEDFORD        LGT RAIN  44  39  82 NE8       30.18R                  
NORWOOD        LGT RAIN  47  41  80 NE7       30.18R                  
MARSHFIELD     LGT RAIN  45  41  87 VRB5      30.18R                  
PLYMOUTH       CLOUDY    46  40  79 NE12G17   30.15R                  
TAUNTON        LGT RAIN  49  38  65 CALM      30.16R                  
NEW BEDFORD    LGT RAIN  49  38  65 N8        30.14R                  
$$

MAZALL-182200-
CAPE COD AND THE ISLANDS
  
CITY           SKY/WX    TMP DP  RH WIND       PRES   REMARKS
FALMOUTH       CLOUDY    46  37  71 NE14      30.14R                  
HYANNIS        CLOUDY    47  35  63 E10       30.13R                  
CHATHAM        CLOUDY    46  39  76 NE10      30.15R                  
PROVINCETOWN   CLOUDY    45  42  89 E10       30.18R                  
NANTUCKET      LGT RAIN  45  39  79 NE16G26   30.11R                  
MARTHAS VNYRD  LGT RAIN  47  41  80 NE18G25   30.12R                  
$$
 
MAZALL-182200-
CENTRAL AND WESTERN MASSACHUSETTS
  
CITY           SKY/WX    TMP DP  RH WIND       PRES   REMARKS
WORCESTER      LGT RAIN  42  37  82 E8        30.15R                  
FITCHBURG      LGT RAIN  44  39  82 NE3       30.19R                  
ORANGE         CLOUDY    45  39  79 N6        30.19R                  
SPRINGFIELD    CLOUDY    46  37  71 NE3       30.14R                  
WESTFIELD      CLOUDY    45  39  79 N6        30.17R                  
NORTH ADAMS    LGT RAIN  45  39  79 E9        30.15S                  
PITTSFIELD     CLOUDY    43  34  70 E7        30.13S                  
$$
 
RIZALL-182200-
RHODE ISLAND
  
CITY           SKY/WX    TMP DP  RH WIND       PRES   REMARKS
PROVIDENCE     LGT RAIN  46  39  76 NE12      30.16R FOG              
NEWPORT        CLOUDY    48  37  65 N7        30.14R                  
BLOCK ISLAND   LGT RAIN  44  40  85 NE13      30.14R                  
SMITHFIELD     LGT RAIN  44  44 100 NE8       30.16R                  
WESTERLY       LGT RAIN  47  37  68 NE3       30.14R                  
$$
 
CTZALL-182200-
CONNECTICUT
  
CITY           SKY/WX    TMP DP  RH WIND       PRES   REMARKS
BRADLEY INTL   CLOUDY    48  39  71 NE9       30.17R                  
HARTFORD       CLOUDY    45  42  89 N9        30.17R                  
PLAINVILLE     CLOUDY    44  42  93 NE8       30.16S                  
BRIDGEPORT     CLOUDY    48  39  71 NE14      30.14S                  
DANBURY        CLOUDY    45  40  82 E3        30.16R                  
GROTON         LGT RAIN  47  42  83 MISG      30.14R FOG              
NEW HAVEN      CLOUDY    48  42  80 NE9       30.15R                  
CHESTER        LGT RAIN  43  43 100 N7        30.15R                  
MERIDEN        CLOUDY    45  39  79 N7        30.16R                  
WILLIMANTIC    LGT RAIN  43  41  93 N7        30.17R                  
OXFORD         CLOUDY    43  39  87 E9        30.14F                  
$$

MEZ002-015-021-024-NHZ003-005-008-011-012-014-VTZ005-008-182200-
NORTHERN NEW ENGLAND
  
CITY           SKY/WX    TMP DP  RH WIND       PRES   REMARKS
PORTLAND ME    PTSUNNY   49  37  63 E10       30.22R                  
BANGOR ME      MOSUNNY   58  34  40 S14       30.15S                  
CONCORD NH     LGT RAIN  45  40  82 CALM      30.20R                  
MANCHESTER NH  LGT RAIN  46  40  79 NE3       30.19R                  
NASHUA NH      LGT RAIN  45  45 100 NW5       30.20S                  
PORTSMOUTH NH  LGT RAIN  46  42  84 E5        30.20R                  
JAFFREY NH     LGT RAIN  44  39  82 N3        30.17S                  
KEENE NH       LGT RAIN  43  39  87 NW3       30.19R                  
BURLINGTON VT  LGT RAIN  45  41  86 S8        30.14R                  
MT. WASHINGTON FRZ DRZL  28  27  93 SW6         N/A  VSB 1/8 WCI  22  
$$

NYZ052-076-182200-
EASTERN NEW YORK
  
CITY           SKY/WX    TMP DP  RH WIND       PRES   REMARKS
ALBANY         CLOUDY    47  38  71 SE10      30.16F                  
NEW YORK CITY  CLOUDY    46  40  79 NE13      30.13R                  
$$
 
ANZALL-182200-
MARINE OBSERVATIONS
  
STATION/POSITION TIME  TEMP    WIND        PRES    VSBY  WAVE
                       AIR SEA DIR/SP/G                  HT/PER
                 (UTC) (F)     (DEG/KT/KT) (MB)    (MI)  (FT/S)
BOSTON BUOY      2050   44      30/  8/ 10 1022.0R         2/ 4
BUZZARDS BAY     2000   46      60/ 17/ 18 1020.2R
NANTUCKET SOUND  2050   46 47   60/ 17/ 19 1019.8R         2/ 4
MASS BAY-STELLWA 1904   45 45   60/  8/ 10 1022.4F  1 7/8  2/ 4
ISLE OF SHOALS   2000   44      70/  7/  7 1022.0R
S OF BLOCK IS    2026      44                N/A           6/ 6
$$

......................KEY.........................
  SKY/WX - SKY CONDITION/PRESENT WEATHER
  TMP    - TEMPERATURE IN FAHRENHEIT
  DWPT   - DEWPOINT IN FAHRENHEIT
  RH     - RELATIVE HUMIDITY IN PERCENT
  WIND   - DIRECTION AND SPEED IN MPH
  PRES   - MEAN SEA LEVEL PRESSURE IN INCHES OF HG
  WCI    - WIND CHILL INDEX
  VSB    - VISIBILITY IN MILES
  HX     - HEAT INDEX
  TC     - TEMPERATURE IN CELSIUS
  VRB    - VARIABLE WIND DIRECTION
  N/A    - NOT AVAILABLE
  
      

Other recent Regional Weather Roundups

Mon Apr 22, 9:10am EDT

Mon Apr 22, 8:10am EDT

Mon Apr 22, 7:10am EDT

Mon Apr 22, 6:10am EDT

Mon Apr 22, 5:10am EDT

Mon Apr 22, 4:10am EDT

Mon Apr 22, 3:10am EDT

Mon Apr 22, 2:10am EDT

Mon Apr 22, 1:10am EDT

Mon Apr 22, 12:10am EDT

Sun Apr 21, 11:10pm EDT

Sun Apr 21, 10:10pm EDT

Sun Apr 21, 9:10pm EDT

Sun Apr 21, 8:10pm EDT

Sun Apr 21, 7:10pm EDT

Sun Apr 21, 6:10pm EDT

Sun Apr 21, 5:10pm EDT

Sun Apr 21, 4:10pm EDT

Sun Apr 21, 3:10pm EDT

Sun Apr 21, 2:10pm EDT

Sun Apr 21, 1:10pm EDT

Sun Apr 21, 12:10pm EDT

Sun Apr 21, 11:10am EDT

Sun Apr 21, 10:10am EDT

Sun Apr 21, 9:10am EDT

Sun Apr 21, 8:10am EDT

Sun Apr 21, 7:10am EDT

Sun Apr 21, 6:10am EDT

Sun Apr 21, 5:10am EDT

Sun Apr 21, 4:10am EDT

Sun Apr 21, 3:10am EDT

Sun Apr 21, 2:10am EDT

Sun Apr 21, 1:10am EDT

Sun Apr 21, 12:10am EDT

Sat Apr 20, 11:10pm EDT

Sat Apr 20, 10:10pm EDT

Sat Apr 20, 9:10pm EDT

Sat Apr 20, 8:10pm EDT

Sat Apr 20, 7:10pm EDT

Sat Apr 20, 6:10pm EDT

Sat Apr 20, 5:10pm EDT

Sat Apr 20, 4:10pm EDT

Sat Apr 20, 3:10pm EDT

Sat Apr 20, 2:10pm EDT

Sat Apr 20, 1:10pm EDT

Sat Apr 20, 12:10pm EDT

Sat Apr 20, 11:10am EDT

Sat Apr 20, 10:10am EDT

Sat Apr 20, 9:10am EDT

Sat Apr 20, 8:10am EDT

Sat Apr 20, 7:10am EDT

Sat Apr 20, 6:10am EDT

Sat Apr 20, 5:10am EDT

Sat Apr 20, 4:10am EDT

Sat Apr 20, 3:10am EDT

Sat Apr 20, 2:10am EDT

Sat Apr 20, 1:10am EDT

Sat Apr 20, 12:10am EDT

Fri Apr 19, 11:10pm EDT

Fri Apr 19, 10:10pm EDT

Fri Apr 19, 9:10pm EDT

Fri Apr 19, 8:10pm EDT

Fri Apr 19, 7:10pm EDT

Fri Apr 19, 6:10pm EDT

Fri Apr 19, 5:10pm EDT

Fri Apr 19, 4:10pm EDT

Fri Apr 19, 3:10pm EDT

Fri Apr 19, 2:10pm EDT

Fri Apr 19, 1:10pm EDT

Fri Apr 19, 12:10pm EDT

Fri Apr 19, 11:10am EDT

Fri Apr 19, 10:10am EDT

Fri Apr 19, 9:10am EDT

Fri Apr 19, 8:10am EDT

Fri Apr 19, 7:10am EDT

Fri Apr 19, 6:10am EDT

Fri Apr 19, 5:10am EDT

Fri Apr 19, 4:10am EDT

Fri Apr 19, 3:10am EDT

Fri Apr 19, 2:10am EDT

Fri Apr 19, 1:10am EDT

Fri Apr 19, 12:10am EDT

Thu Apr 18, 11:10pm EDT

Thu Apr 18, 10:10pm EDT

Thu Apr 18, 9:10pm EDT

Thu Apr 18, 8:10pm EDT

Thu Apr 18, 7:10pm EDT

Thu Apr 18, 6:10pm EDT

Thu Apr 18, 4:10pm EDT

Thu Apr 18, 3:10pm EDT

Thu Apr 18, 2:10pm EDT

Thu Apr 18, 1:10pm EDT

Thu Apr 18, 12:10pm EDT

Thu Apr 18, 11:10am EDT

Thu Apr 18, 10:10am EDT

Thu Apr 18, 9:10am EDT

Thu Apr 18, 8:10am EDT

Thu Apr 18, 7:10am EDT

Thu Apr 18, 6:10am EDT

Thu Apr 18, 5:10am EDT

Thu Apr 18, 4:10am EDT

Thu Apr 18, 3:10am EDT

Thu Apr 18, 2:10am EDT

Thu Apr 18, 1:10am EDT

Thu Apr 18, 12:10am EDT

Wed Apr 17, 11:10pm EDT

Wed Apr 17, 10:10pm EDT

Wed Apr 17, 9:10pm EDT

Wed Apr 17, 8:10pm EDT

Wed Apr 17, 7:10pm EDT

Wed Apr 17, 6:10pm EDT

Wed Apr 17, 5:10pm EDT

Wed Apr 17, 4:10pm EDT

Wed Apr 17, 3:10pm EDT

Wed Apr 17, 2:10pm EDT

Wed Apr 17, 1:10pm EDT

Wed Apr 17, 12:10pm EDT

Wed Apr 17, 11:10am EDT

Wed Apr 17, 10:10am EDT

Wed Apr 17, 9:10am EDT

Wed Apr 17, 8:10am EDT

Wed Apr 17, 7:10am EDT

Wed Apr 17, 6:10am EDT

Wed Apr 17, 5:10am EDT

Wed Apr 17, 4:10am EDT

Wed Apr 17, 3:10am EDT

Wed Apr 17, 2:10am EDT

Wed Apr 17, 1:10am EDT

Wed Apr 17, 12:10am EDT

Tue Apr 16, 11:10pm EDT

Tue Apr 16, 10:10pm EDT

Tue Apr 16, 9:10pm EDT

Tue Apr 16, 8:10pm EDT

Tue Apr 16, 7:10pm EDT

Tue Apr 16, 6:10pm EDT

Tue Apr 16, 5:10pm EDT

Tue Apr 16, 4:10pm EDT

Tue Apr 16, 3:10pm EDT

Tue Apr 16, 2:10pm EDT

Tue Apr 16, 1:10pm EDT

Tue Apr 16, 12:10pm EDT

Tue Apr 16, 11:10am EDT

Tue Apr 16, 10:10am EDT

Tue Apr 16, 9:10am EDT

Tue Apr 16, 8:10am EDT

Tue Apr 16, 7:10am EDT

Tue Apr 16, 6:10am EDT

Tue Apr 16, 5:10am EDT

Tue Apr 16, 4:10am EDT

Tue Apr 16, 3:10am EDT

Tue Apr 16, 2:10am EDT

Tue Apr 16, 1:10am EDT

Tue Apr 16, 12:10am EDT

Mon Apr 15, 11:10pm EDT

Mon Apr 15, 10:10pm EDT

Mon Apr 15, 9:10pm EDT

Mon Apr 15, 8:10pm EDT

Mon Apr 15, 7:10pm EDT

Mon Apr 15, 6:10pm EDT

Mon Apr 15, 5:10pm EDT

Mon Apr 15, 4:10pm EDT

Mon Apr 15, 3:10pm EDT

Mon Apr 15, 2:10pm EDT

Mon Apr 15, 1:10pm EDT

Mon Apr 15, 12:10pm EDT

Mon Apr 15, 11:10am EDT

Mon Apr 15, 10:10am EDT